Stations météo

réclame
Mon MeteoGroup
Faßberg, Allemagne (10246): Température de l'air & dewpoint: 11.01.2019 01:00:00 - 17.01.2019 01:00:00 (CET)Faßberg, Allemagne (10246): Vitesse du vent & gusts: 11.01.2019 01:00:00 - 17.01.2019 01:00:00 (CET)Faßberg, Allemagne (10246): Direction du vent: 11.01.2019 01:00:00 - 17.01.2019 01:00:00 (CET)Faßberg, Allemagne (10246): reduced air pressure: 11.01.2019 01:00:00 - 17.01.2019 01:00:00 (CET)Faßberg, Allemagne (10246): visibility: 11.01.2019 01:00:00 - 17.01.2019 01:00:00 (CET)
Date & Time tt [°C] td [°C] ff [km/h] ff [knt] fx [km/h] fx [knt] dd ppp [hPa] vv [km]
17.01.2019 01:00:00 4,8 1,1 25 14 - - WSW 998,1 10
17.01.2019 00:00:00 5,1 0,7 29 16 50 27 WSW 998,7 15
16.01.2019 23:00:00 5,0 0,8 25 14 - - WSW 999,5 15
16.01.2019 22:00:00 4,7 0,9 25 14 - - WSW 1000,4 15
16.01.2019 21:00:00 4,4 1,2 25 14 - - WSW 1001,3 15
16.01.2019 20:00:00 4,2 1,6 25 14 - - WSW 1001,9 7
16.01.2019 19:00:00 5,1 1,1 25 14 - - WSW 1002,4 12
16.01.2019 18:00:00 5,3 1,6 25 14 - - WSW 1003,1 10
16.01.2019 17:00:00 5,4 2,4 29 16 - - WSW 1003,8 10
16.01.2019 16:00:00 5,9 2,9 22 12 - - W 1004,4 12
16.01.2019 15:00:00 6,0 3,4 29 16 47 25 W 1004,7 12
16.01.2019 14:00:00 6,0 3,7 29 16 47 25 W 1005,3 10
16.01.2019 13:00:00 6,1 4,1 29 16 - - W 1005,9 5
16.01.2019 12:00:00 5,9 4,7 25 14 - - W 1006,6 4,0
16.01.2019 11:00:00 6,5 4,2 32 18 - - W 1007,1 8
16.01.2019 10:00:00 6,5 4,2 25 14 - - W 1007,5 8
16.01.2019 09:00:00 6,2 4,2 22 12 - - W 1007,7 7
16.01.2019 08:00:00 5,9 4,3 22 12 - - W 1007,8 6
16.01.2019 07:00:00 5,8 4,4 25 14 - - W 1007,9 4,5
16.01.2019 06:00:00 5,7 4,3 25 14 - - W 1008,3 5
16.01.2019 05:00:00 5,9 4,3 25 14 - - W 1008,9 7
16.01.2019 04:00:00 6,2 4,7 25 14 - - W 1009,5 7
16.01.2019 03:00:00 6,3 4,9 25 14 - - W 1009,8 5
16.01.2019 02:00:00 6,5 5,0 22 12 - - W 1009,8 7
16.01.2019 01:00:00 6,6 5,5 25 14 - - W 1009,8 5
16.01.2019 00:00:00 6,5 5,6 22 12 - - W 1009,8 3,5
15.01.2019 23:00:00 6,3 5,4 25 14 - - W 1009,8 3,0
15.01.2019 22:00:00 6,1 5,2 25 14 - - W 1009,6 3,0
15.01.2019 21:00:00 6,1 5,2 29 16 47 25 W 1009,6 2,5
15.01.2019 20:00:00 6,1 5,2 25 14 - - W 1009,5 2,5
15.01.2019 19:00:00 6,1 5,1 29 16 - - W 1009,3 2,5
15.01.2019 18:00:00 6,0 4,9 25 14 - - W 1009,1 3,5
15.01.2019 17:00:00 5,8 4,8 25 14 47 25 W 1009,3 2,5
15.01.2019 16:00:00 5,6 4,6 26 14 - - W 1009,5 3,0
15.01.2019 15:00:00 5,4 4,2 25 14 50 27 W 1009,8 3,5
15.01.2019 14:00:00 5,1 3,9 25 14 - - W 1010,1 4,5
15.01.2019 13:00:00 4,7 3,5 25 14 - - W 1010,8 4,0
15.01.2019 12:00:00 4,4 3,2 25 14 - - W 1011,7 3,5
15.01.2019 11:00:00 3,8 2,5 22 12 - - W 1012,2 4,0
15.01.2019 10:00:00 3,8 1,2 22 12 - - W 1012,6 8
15.01.2019 09:00:00 3,6 0,5 25 14 47 25 WNW 1012,6 20
15.01.2019 08:00:00 3,0 -0,5 25 14 - - W 1012,5 20
15.01.2019 07:00:00 2,5 -1,0 22 12 - - WNW 1013,0 30
15.01.2019 06:00:00 2,6 -1,1 22 12 - - W 1013,6 30
15.01.2019 05:00:00 2,4 -1,4 22 12 - - W 1013,7 30
15.01.2019 04:00:00 2,3 -1,4 14 8 - - W 1014,0 30
15.01.2019 03:00:00 1,9 -1,2 18 10 - - WNW 1014,4 25
15.01.2019 02:00:00 1,6 -1,1 18 10 - - WNW 1014,0 25
15.01.2019 01:00:00 1,5 -1,1 18 10 - - W 1014,0 30
15.01.2019 00:00:00 1,0 -1,6 18 10 - - WNW 1013,8 30
14.01.2019 23:00:00 1,1 -1,8 22 12 - - WNW 1013,3 30
14.01.2019 22:00:00 1,0 -1,4 14 8 - - W 1013,0 30
14.01.2019 21:00:00 0,6 -1,6 22 12 - - WNW 1012,7 30
14.01.2019 20:00:00 0,2 -2,4 18 10 - - WNW 1012,2 30
14.01.2019 19:00:00 0,3 -3,0 18 10 - - WNW 1011,5 30
14.01.2019 18:00:00 0,2 -3,3 14 8 - - WNW 1010,8 30
14.01.2019 17:00:00 0,5 -3,5 22 12 - - NW 1010,2 30
14.01.2019 16:00:00 1,2 -3,2 25 14 - - NW 1009,3 30
14.01.2019 15:00:00 1,4 -3,3 25 14 50 27 NW 1008,2 20
14.01.2019 14:00:00 1,4 -1,8 25 14 50 27 NNW 1007,3 9
14.01.2019 13:00:00 0,5 -1,2 29 16 - - N 1006,6 6
14.01.2019 12:00:00 2,8 -3,4 36 19 58 31 NNW 1005,8 30
14.01.2019 11:00:00 2,9 -2,9 29 16 - - NNW 1005,5 25
14.01.2019 10:00:00 2,5 -3,5 25 14 - - NNW 1005,1 25
14.01.2019 09:00:00 2,6 -2,9 29 16 54 29 NNW 1004,0 20
14.01.2019 08:00:00 1,9 -1,8 22 12 - - NW 1003,1 30
14.01.2019 07:00:00 2,4 -2,2 29 16 - - NNW 1002,7 10
14.01.2019 06:00:00 2,4 -0,8 36 19 61 33 N 1001,7 10
14.01.2019 05:00:00 3,0 -1,5 25 14 - - NW 1000,9 11
14.01.2019 04:00:00 3,7 -2,0 29 16 - - NNW 1000,1 11
14.01.2019 03:00:00 3,9 -1,7 40 21 58 31 NNW 998,5 11
14.01.2019 02:00:00 4,5 -1,6 32 18 58 31 NNW 997,0 11
14.01.2019 01:00:00 5,0 -0,7 40 21 - - NNW 995,8 11
14.01.2019 00:00:00 5,7 0,4 43 23 65 35 NNW 994,2 11
13.01.2019 23:00:00 6,2 2,9 36 19 61 33 NW 993,0 12
13.01.2019 22:00:00 6,3 3,8 32 18 - - NW 992,1 6
13.01.2019 21:00:00 6,2 3,6 36 19 76 41 NW 992,0 7
13.01.2019 20:00:00 6,7 4,0 36 19 58 31 WNW 991,5 9
13.01.2019 19:00:00 6,4 4,1 32 18 - - NW 991,6 9
13.01.2019 18:00:00 6,8 4,0 40 21 76 41 NW 991,8 8
13.01.2019 17:00:00 7,9 6,9 25 14 47 25 WNW 991,4 4,0
13.01.2019 16:00:00 7,9 6,7 22 12 - - W 992,1 8
13.01.2019 15:00:00 8,0 6,9 25 14 - - WNW 993,6 3,7
13.01.2019 14:00:00 8,1 7,0 22 12 - - WNW 994,6 3,7
13.01.2019 13:00:00 7,9 7,0 22 12 - - WNW 995,5 3,5
13.01.2019 12:00:00 7,4 6,5 22 12 - - W 996,7 5
13.01.2019 11:00:00 6,9 6,0 29 16 - - W 997,9 5
13.01.2019 10:00:00 6,3 5,4 29 16 - - W 999,3 6
13.01.2019 09:00:00 6,0 5,1 25 14 - - W 1000,8 6
13.01.2019 08:00:00 5,9 5,0 22 12 - - W 1002,2 6
13.01.2019 07:00:00 5,9 5,0 18 10 - - W 1002,9 6
13.01.2019 06:00:00 5,8 4,7 18 10 - - W 1003,7 6
13.01.2019 05:00:00 5,6 4,4 15 8 - - W 1004,5 10
13.01.2019 04:00:00 5,8 4,2 22 12 - - WNW 1004,8 12
13.01.2019 03:00:00 5,9 4,2 25 14 - - NW 1004,9 10
13.01.2019 02:00:00 6,0 4,6 25 14 - - WNW 1005,0 10
13.01.2019 01:00:00 5,8 4,6 25 14 - - WNW 1004,9 9
13.01.2019 00:00:00 5,1 4,1 18 10 - - W 1005,3 9
12.01.2019 23:00:00 5,2 3,8 22 12 - - WNW 1005,7 12
12.01.2019 22:00:00 5,5 4,2 18 10 - - WNW 1005,8 9
12.01.2019 21:00:00 5,8 4,3 22 12 - - WNW 1006,0 8
12.01.2019 20:00:00 5,8 4,4 25 14 - - W 1006,5 8
12.01.2019 19:00:00 5,9 4,4 18 10 - - W 1006,6 10
12.01.2019 18:00:00 6,0 4,6 18 10 - - W 1006,6 10
12.01.2019 17:00:00 6,1 4,6 22 12 - - WNW 1007,0 6
12.01.2019 16:00:00 5,8 4,9 22 12 - - W 1007,4 5
12.01.2019 15:00:00 5,3 4,4 25 14 - - W 1008,1 6
12.01.2019 14:00:00 5,1 4,2 22 12 - - W 1009,2 6
12.01.2019 13:00:00 4,9 3,9 25 14 - - W 1010,7 6
12.01.2019 12:00:00 4,9 3,3 25 14 - - W 1012,3 6
12.01.2019 11:00:00 5,3 3,0 22 12 - - W 1013,8 10
12.01.2019 10:00:00 5,2 3,1 22 12 - - W 1014,6 18
12.01.2019 09:00:00 5,3 3,5 22 12 - - WNW 1015,1 14
12.01.2019 08:00:00 5,4 3,9 25 14 - - WNW 1015,5 14
12.01.2019 07:00:00 5,3 4,2 25 14 - - WNW 1015,7 6
12.01.2019 06:00:00 5,4 4,3 18 10 - - WNW 1015,8 10
12.01.2019 05:00:00 5,2 3,9 13 7 - - WNW 1016,4 2,5
12.01.2019 04:00:00 5,5 2,1 18 10 - - NW 1016,9 10
12.01.2019 03:00:00 5,8 1,2 25 14 - - NW 1017,1 10
12.01.2019 02:00:00 5,7 1,6 22 12 - - NW 1017,1 10
12.01.2019 01:00:00 5,7 1,4 25 14 - - NNW 1017,2 10
12.01.2019 00:00:00 5,6 1,6 16 9 - - NNW 1017,4 10
11.01.2019 23:00:00 5,6 2,0 18 10 47 25 NNW 1017,3 10
11.01.2019 22:00:00 5,8 2,1 25 14 - - NNW 1016,9 10
11.01.2019 21:00:00 6,0 2,7 25 14 - - NNW 1016,6 10
11.01.2019 20:00:00 6,1 2,9 25 14 - - NW 1016,1 10
11.01.2019 19:00:00 6,0 3,1 25 14 - - NW 1016,1 18
11.01.2019 18:00:00 6,2 3,4 25 14 - - NW 1015,9 15
11.01.2019 17:00:00 6,4 4,2 29 16 47 25 NW 1015,7 15
11.01.2019 16:00:00 6,7 5,0 29 16 - - NW 1015,6 16
11.01.2019 15:00:00 6,8 5,6 29 16 - - NW 1015,5 8
11.01.2019 14:00:00 6,8 6,1 22 12 - - NW 1015,9 10
11.01.2019 13:00:00 5,7 5,2 18 10 - - WNW 1017,0 2,6
11.01.2019 12:00:00 4,6 4,2 18 10 - - W 1017,4 3,0
11.01.2019 11:00:00 3,8 3,3 16 9 - - W 1018,3 1,5
11.01.2019 10:00:00 3,0 2,6 13 7 - - W 1018,7 1,0
11.01.2019 09:00:00 2,4 2,0 14 8 - - W 1019,0 0,5
11.01.2019 08:00:00 1,9 1,5 14 8 - - W 1019,4 0,6
11.01.2019 07:00:00 1,5 1,1 14 8 - - W 1019,6 0,8
11.01.2019 06:00:00 1,1 0,5 13 7 - - W 1020,3 1,2
11.01.2019 05:00:00 0,7 0,1 14 8 - - WSW 1020,5 1,8
11.01.2019 04:00:00 0,5 -0,1 14 8 - - W 1021,5 2,0
11.01.2019 03:00:00 0,3 -0,3 14 8 - - W 1022,2 2,0
11.01.2019 02:00:00 0,3 -0,3 14 8 - - W 1022,7 2,0
11.01.2019 01:00:00 0,2 -0,4 14 8 - - WSW 1023,5 2,0

tt = Température de l'air
td = dewpoint
ff = Vitesse du vent
fx = gusts
dd = Direction du vent
ppp = reduced air pressure
vv = visibility

stations d'obs. à proximité